TimeCST,TemperatureF,Dew PointF,Humidity,Sea Level PressureIn,VisibilityMPH,Wind Direction,Wind SpeedMPH,Gust SpeedMPH,PrecipitationIn,Events,Conditions,WindDirDegrees,DateUTC
12:15 AM,18.7,13.3,79,30.10,10.0,SW,4.6,-,N/A,,Clear,220,2013-01-23 06:15:00
12:35 AM,19.9,13.6,77,30.09,10.0,SW,5.8,-,N/A,,Clear,230,2013-01-23 06:35:00
12:55 AM,18.5,13.3,80,30.09,10.0,WSW,4.6,-,N/A,,Clear,240,2013-01-23 06:55:00
1:15 AM,19.0,14.0,81,30.09,10.0,WSW,3.5,-,N/A,,Clear,250,2013-01-23 07:15:00
1:35 AM,18.3,13.6,82,30.08,10.0,West,4.6,-,N/A,,Clear,270,2013-01-23 07:35:00
1:55 AM,17.2,12.4,81,30.09,10.0,NW,4.6,-,N/A,,Clear,310,2013-01-23 07:55:00
2:15 AM,19.6,14.2,80,30.09,10.0,WNW,4.6,-,N/A,,Clear,290,2013-01-23 08:15:00
2:35 AM,16.5,12.2,83,30.10,10.0,NNW,3.5,-,N/A,,Clear,330,2013-01-23 08:35:00
2:55 AM,17.6,13.5,84,30.10,10.0,WNW,3.5,-,N/A,,Clear,290,2013-01-23 08:55:00
3:15 AM,17.2,13.5,85,30.10,10.0,WNW,5.8,-,N/A,,Clear,290,2013-01-23 09:15:00
3:35 AM,17.8,13.5,83,30.10,10.0,NW,5.8,-,N/A,,Clear,310,2013-01-23 09:35:00
3:55 AM,18.5,14.7,85,30.10,10.0,NW,5.8,-,N/A,,Clear,310,2013-01-23 09:55:00
4:15 AM,17.6,13.3,83,30.10,10.0,NNW,6.9,-,N/A,,Clear,330,2013-01-23 10:15:00
4:35 AM,17.4,13.6,85,30.10,10.0,NNW,6.9,-,N/A,,Clear,330,2013-01-23 10:35:00
4:55 AM,16.7,13.5,87,30.10,10.0,NNW,9.2,-,N/A,,Clear,340,2013-01-23 10:55:00
5:15 AM,16.9,13.6,87,30.11,10.0,NNW,8.1,-,N/A,,Clear,330,2013-01-23 11:15:00
5:35 AM,16.2,12.7,86,30.12,10.0,NNW,8.1,-,N/A,,Clear,330,2013-01-23 11:35:00
5:55 AM,16.3,13.5,88,30.13,10.0,NNW,10.4,-,N/A,,Clear,340,2013-01-23 11:55:00
6:15 AM,17.8,13.6,84,30.13,10.0,North,9.2,-,N/A,,Clear,350,2013-01-23 12:15:00
6:35 AM,16.0,12.2,85,30.14,10.0,NNW,5.8,-,N/A,,Clear,340,2013-01-23 12:35:00
6:55 AM,16.3,12.9,86,30.14,10.0,NNW,5.8,-,N/A,,Clear,340,2013-01-23 12:55:00
7:15 AM,16.0,12.4,86,30.14,10.0,NNW,6.9,-,N/A,,Clear,340,2013-01-23 13:15:00
7:35 AM,15.8,12.7,88,30.16,10.0,NNW,8.1,-,N/A,,Clear,340,2013-01-23 13:35:00
7:55 AM,16.3,13.1,87,30.17,10.0,NNW,5.8,-,N/A,,Clear,340,2013-01-23 13:55:00
8:15 AM,16.5,13.3,87,30.18,10.0,NW,4.6,-,N/A,,Clear,320,2013-01-23 14:15:00
8:35 AM,16.3,13.1,87,30.19,10.0,NW,5.8,-,N/A,,Clear,320,2013-01-23 14:35:00
8:55 AM,16.7,13.6,88,30.20,10.0,NNW,4.6,-,N/A,,Clear,340,2013-01-23 14:55:00
9:15 AM,18.3,14.9,86,30.22,10.0,NNW,8.1,-,N/A,,Clear,330,2013-01-23 15:15:00
9:35 AM,19.0,14.9,84,30.23,10.0,NNW,9.2,-,N/A,,Clear,330,2013-01-23 15:35:00
9:55 AM,19.4,14.5,81,30.24,10.0,North,11.5,-,N/A,,Clear,350,2013-01-23 15:55:00
10:15 AM,19.8,14.7,81,30.26,10.0,NNW,12.7,-,N/A,,Scattered Clouds,340,2013-01-23 16:15:00
10:35 AM,19.8,14.0,78,30.27,10.0,North,12.7,-,N/A,,Clear,350,2013-01-23 16:35:00
10:55 AM,20.8,14.0,75,30.28,10.0,North,16.1,-,N/A,,Clear,350,2013-01-23 16:55:00
11:15 AM,21.0,13.5,73,30.29,10.0,North,16.1,19.6,N/A,,Clear,350,2013-01-23 17:15:00
11:35 AM,21.2,12.7,70,30.29,10.0,NNW,15.0,-,N/A,,Clear,340,2013-01-23 17:35:00
11:55 AM,22.1,12.6,67,30.30,10.0,NNW,18.4,23.0,N/A,,Clear,340,2013-01-23 17:55:00
12:15 PM,21.7,12.0,66,30.30,10.0,North,13.8,-,N/A,,Clear,350,2013-01-23 18:15:00
12:35 PM,21.9,11.8,65,30.30,10.0,North,16.1,19.6,N/A,,Clear,350,2013-01-23 18:35:00
12:55 PM,21.7,10.6,62,30.29,10.0,North,16.1,20.7,N/A,,Clear,10,2013-01-23 18:55:00
1:15 PM,21.7,10.8,63,30.30,10.0,North,15.0,20.7,N/A,,Clear,350,2013-01-23 19:15:00
1:35 PM,22.5,10.4,60,30.30,10.0,North,17.3,20.7,N/A,,Clear,360,2013-01-23 19:35:00
1:55 PM,22.1,10.0,60,30.29,10.0,North,17.3,23.0,N/A,,Clear,10,2013-01-23 19:55:00
2:15 PM,22.3,9.5,58,30.30,10.0,North,16.1,20.7,N/A,,Clear,10,2013-01-23 20:15:00
2:35 PM,22.1,10.0,60,30.30,10.0,North,16.1,19.6,N/A,,Clear,350,2013-01-23 20:35:00
2:55 PM,22.5,10.0,59,30.31,10.0,North,16.1,20.7,N/A,,Clear,360,2013-01-23 20:55:00
3:15 PM,22.3,9.9,59,30.32,10.0,NNW,15.0,18.4,N/A,,Clear,340,2013-01-23 21:15:00
3:35 PM,21.6,9.3,59,30.33,10.0,North,15.0,-,N/A,,Clear,10,2013-01-23 21:35:00
3:55 PM,19.4,8.8,63,30.33,10.0,North,13.8,-,N/A,,Clear,350,2013-01-23 21:55:00
4:15 PM,18.3,8.4,65,30.34,10.0,North,13.8,-,N/A,,Clear,360,2013-01-23 22:15:00
4:35 PM,17.2,8.8,69,30.35,10.0,North,11.5,-,N/A,,Clear,360,2013-01-23 22:35:00
4:55 PM,17.1,8.6,69,30.36,10.0,North,15.0,18.4,N/A,,Clear,360,2013-01-23 22:55:00
5:15 PM,16.2,7.7,69,30.37,10.0,North,11.5,17.3,N/A,,Clear,360,2013-01-23 23:15:00
5:35 PM,15.4,7.3,70,30.38,10.0,North,8.1,-,N/A,,Clear,10,2013-01-23 23:35:00
5:55 PM,14.7,7.3,73,30.37,10.0,North,9.2,-,N/A,,Clear,10,2013-01-23 23:55:00
6:15 PM,14.2,7.3,74,30.38,10.0,North,6.9,-,N/A,,Clear,10,2013-01-24 00:15:00
6:35 PM,13.6,7.2,75,30.39,10.0,NNE,8.1,-,N/A,,Clear,20,2013-01-24 00:35:00
6:55 PM,13.3,5.9,72,30.40,10.0,North,10.4,-,N/A,,Clear,10,2013-01-24 00:55:00
7:15 PM,12.7,5.0,71,30.40,10.0,NNE,11.5,-,N/A,,Clear,20,2013-01-24 01:15:00
7:35 PM,11.7,5.0,75,30.40,10.0,NE,10.4,-,N/A,,Clear,40,2013-01-24 01:35:00
7:55 PM,11.3,4.8,75,30.41,10.0,NE,8.1,-,N/A,,Clear,40,2013-01-24 01:55:00
8:15 PM,10.8,4.5,76,30.41,10.0,NNE,5.8,-,N/A,,Clear,30,2013-01-24 02:15:00
8:35 PM,10.4,4.1,76,30.41,10.0,NNE,8.1,-,N/A,,Clear,20,2013-01-24 02:35:00
8:55 PM,10.4,4.3,76,30.43,10.0,North,3.5,-,N/A,,Clear,10,2013-01-24 02:55:00
9:15 PM,9.9,3.9,77,30.43,10.0,NE,4.6,-,N/A,,Clear,50,2013-01-24 03:15:00
9:35 PM,9.3,2.1,73,30.43,10.0,NE,8.1,-,N/A,,Clear,40,2013-01-24 03:35:00
9:55 PM,9.0,1.6,72,30.44,10.0,NNE,8.1,-,N/A,,Clear,20,2013-01-24 03:55:00
10:15 PM,8.4,1.8,74,30.45,10.0,NE,5.8,-,N/A,,Clear,40,2013-01-24 04:15:00
10:35 PM,7.7,1.4,75,30.44,10.0,NNE,6.9,-,N/A,,Clear,30,2013-01-24 04:35:00
10:55 PM,7.2,1.0,76,30.44,10.0,NE,6.9,-,N/A,,Clear,50,2013-01-24 04:55:00
11:15 PM,6.6,0.5,76,30.45,10.0,NE,6.9,-,N/A,,Clear,40,2013-01-24 05:15:00
11:35 PM,5.5,0.5,80,30.45,10.0,NE,6.9,-,N/A,,Clear,40,2013-01-24 05:35:00
11:55 PM,5.0,0.1,80,30.45,10.0,NE,8.1,-,N/A,,Clear,40,2013-01-24 05:55:00